Regional Weather Roundup
Issued by NWS

Home | Current Version | Previous Version | Graphics & Text | Print | Product List | Glossary On
Versions: 1 2 3 4 5 6 7 8 9 10 11 12 13 14 15 16 17 18 19 20 21 22 23 24 25 26 27 28 29 30 31 32 33 34 35 36 37 38 39 40 41 42 43 44 45 46 47 48 49 50
000
ASUS43 KLMK 271302
RWRKY
KENTUCKY REGIONAL WEATHER ROUNDUP
NATIONAL WEATHER SERVICE LOUISVILLE KY
900 AM EDT FRI MAR 27 2015

NOTE "FAIR" INDICATES FEW OR NO CLOUDS BELOW 12,000 FEET
WITH NO SIGNIFICANT WEATHER AND/OR OBSTRUCTIONS TO VISIBILITY.

KYZ001>023-026-027-061>063-070>075-271400-
WESTERN AND SOUTH CENTRAL KENTUCKY

CITY           SKY/WX    TMP DP  RH WIND       PRES   REMARKS
PADUCAH        CLOUDY    38  32  79 N9        30.06R WCI  31
HENDERSON      CLOUDY    37  28  70 NE8       30.04R WCI  31
OWENSBORO      MOSUNNY   37  31  79 N8        30.03S WCI  31
HOPKINSVILLE   MOSUNNY   34  32  92 NW5       30.02R WCI  30
BOWLING GREEN  MOSUNNY   37  32  82 NW5       30.00R WCI  33
GLASGOW        NOT AVBL
$$

KYZ024-025-028>034-038-045-046-053-271400-
NORTH CENTRAL KENTUCKY

CITY           SKY/WX    TMP DP  RH WIND       PRES   REMARKS
LOUISVILLE/SDF PTSUNNY   36  29  75 N13       30.02R WCI  27
LOUISVILLE/LOU SUNNY     35  29  78 N10       30.02R WCI  27
FORT KNOX      PTSUNNY   34  30  85 N6        29.98R WCI  29
$$

KYZ035>037-039>044-047>052-055>060-089>105-271400-
NORTHEAST KENTUCKY

CITY           SKY/WX    TMP DP  RH WIND       PRES   REMARKS
LEXINGTON      SUNNY     35  26  69 N9        29.96S WCI  28
COVINGTON      MOSUNNY   33  24  69 N9        29.98F WCI  25
FRANKFORT      SUNNY     35  26  69 N8        29.97R WCI  29
$$

KYZ054-064>069-076>088-106>120-271400-
SOUTHEAST KENTUCKY

CITY           SKY/WX    TMP DP  RH WIND       PRES   REMARKS
JACKSON        CLOUDY    37  33  85 VRB5      29.91R WCI  33
LONDON         CLOUDY    38  31  76 N8        29.93R WCI  32
SOMERSET       NOT AVBL
MIDDLESBORO    NOT AVBL
MONTICELLO     PTSUNNY   38  34  85 N6        29.98R WCI  33
$$



USA.gov is the U.S. government's official web portal to all federal, state and local government web resources and services.